User: anonymous   Login
Location: Ithaca
(42.4410°N, 76.4970°W)
Time: 14:33:00
(UTC-04:00)
Language:

Cosmos 1271 Rocket - Orbit

View from above orbital plane
View from above orbital plane
View from above satellite
View from above satellite

Ground track
Ground track

The orbit data is extracted from the following two-line orbital elements,

1 12465U 81046B   14303.09915040  .00006105  00000-0  36369-3 0  3790
2 12465 081.2483 046.5637 0035205 287.6838 072.0545 15.10521328822153
Epoch (UTC): 30 October 2014 02:22:46
Eccentricity: 0.0035205
inclination: 81.2483°
perigee height: 510 km
apogee height: 559 km
right ascension of ascending node: 46.5637°
argument of perigee: 287.6838°
revolutions per day: 15.10521328
mean anomaly at epoch: 72.0545°
orbit number at epoch: 82215

The dashed part of the orbit path shows where the satellite is in the earth's shadow,  

DLR